AirNav   Everest Fuels
 
 1184 users online  

8MO9 Mercy Hospital St Louis Heliport
St Louis, Missouri, USA

GOING TO ST LOUIS?


FAA INFORMATION EFFECTIVE 16 JULY 2020

Location

FAA Identifier: 8MO9
Lat/Long: 38-38-37.2100N 090-26-54.0100W
38-38.620167N 090-26.900167W
38.6436694,-90.4483361
(estimated)
Elevation: 633 ft. / 193 m (estimated)
Variation: 02E (1985)
Time zone: UTC -5 (UTC -6 during Standard Time)
Zip code: 63141

Heliport Operations

Heliport use: Private use, MEDICAL.
Activation date: 08/1973
Control tower: no
ARTCC: KANSAS CITY CENTER
FSS: SAINT LOUIS FLIGHT SERVICE STATION
Attendance: CONTINUOUS
FOR SVC CALL 314-251-1050.
Wind indicator: yes
Segmented circle: no
Lights: FOR LGTS CALL 314-251-6050.

Heliport Communications

WX ASOS at STL (7 nm NE): 125.025 (314-890-4790)
WX ASOS at SUS (10 nm W): 134.8 (314-890-7255)
WX ASOS at CPS (14 nm E): PHONE 618-332-0001
WX ASOS at SET (17 nm N): 118.075 (636-250-4590)

Nearby radio navigation aids

VOR radial/distance  VOR name  Freq  Var
STLr172/13.1ST LOUIS VORTAC117.4001E
FTZr092/24.7FORISTELL VORTAC110.8005E
TOYr253/25.5TROY VORTAC116.0004E

 
NDB name  Hdg/Dist  Freq  Var  ID
EAVES115/5.122701WFZ ..-. --..
SNOOP090/14.932601WSU ... ..-
CIVIC MEMORIAL232/23.626301WCVM -.-. ...- --

Heliport Services

Airframe service: NONE
Powerplant service: NONE

Runway Information

Helipad H1

Dimensions: 135 x 90 ft. / 41 x 27 m
Surface: concrete
Runway edge lights: non-standard
40 WATT 33.81 C.P. 425 LUMINS.
Latitude: 38-38.620167N
Longitude: 090-26.900167W
Elevation: 633.0 ft.
Traffic pattern: leftleft

Heliport Ownership and Management from official FAA records

Ownership: Privately-owned
Owner: MERCY HOSPITAL ST. LOUIS
615 SOUTH NEW BALLAS RD.
ST LOUIS, MO 63141
Phone (314) 251-1900
Manager: NATASHA ZVENTEL, DIRECTOR
615 SOUTH NEW BALLAS ROAD
ST LOUIS, MO 63141
Phone (314) 251-4988
ADDITIONAL CONTACT: STEVE BOLLIN 314-251-1906 STEVE.BOLLIN@MERCY.NET

Heliport Operational Statistics

Aircraft based on the field: 3
Helicopters: 3
    

Additional Remarks

A52-H1 RWY H1 MERCY HOSPITAL ST. LOUIS BLDG LGTD & MKD; 658' PARKING LGT STD 25' SOUTH
FOR CD CTC ST LOUIS APCH AT 314-890-1018.

Instrument Procedures

There are no published instrument procedures at 8MO9.

Some nearby airports with instrument procedures:

1H0 - Creve Coeur Airport (6 nm NW)
KSTL - St Louis Lambert International Airport (7 nm NE)
KSUS - Spirit of St Louis Airport (10 nm W)
KCPS - St Louis Downtown Airport (14 nm E)
KSET - St Charles County Smartt Airport (17 nm N)
 
Loc | Ops | Rwys | IFR | FBO | Links
Com | Nav | Svcs | Stats | Notes
Area around 8MO9 (Mercy Hospital St Louis Heliport)
 
Road maps at: MapQuest Bing Google
 
Aerial photo
No photo
 
Sectional chart

 
Airport distance calculator
Flying to Mercy Hospital St Louis Heliport? Find the distance to fly.

From to 8MO9

Sunrise and sunset
Times for 03-Aug-2020
 Local
(UTC-5)
 Zulu
(UTC)
Morning civil twilight05:3810:38
Sunrise06:0711:07
Sunset20:0901:09
Evening civil twilight20:3801:38

Current date and time
Zulu (UTC)  03-Aug-2020 22:26:22
Local (UTC-5)  03-Aug-2020 17:26:22
 
METAR
KSTL 
7nm NE 
032151Z 35008KT 10SM -RA FEW024 BKN060 BKN150 23/18 A3002 RMK AO2 RAB48 SLP157 P0000 T02280178
KSUS 
9nm W 
032154Z 02008KT 10SM FEW029 OVC055 23/17 A3001 RMK AO2 SLP157 T02280172
KCPS 
15nm E 
032200Z 36016KT 10SM FEW022 SCT032 SCT060 24/19 A3000 RMK AO2 T02390189 PNO $
KSET 
17nm N 
032154Z AUTO 35011KT 10SM FEW025 SCT070 OVC085 23/17 A3001 RMK AO2 SLP159 T02330172
TAF
KSTL 
7nm NE 
032001Z 0320/0424 34014KT P6SM VCSH OVC022 FM032200 35009KT P6SM OVC035 FM041000 35005KT P6SM BKN022 FM041600 36008KT P6SM SCT080
KSUS 
9nm W 
031912Z 0319/0418 35009KT P6SM BKN035 FM032300 35008KT P6SM SCT045 FM041000 VRB04KT P6SM BKN025 FM041500 35007KT P6SM SCT022
KCPS 
15nm E 
032000Z 0320/0418 35010G20KT P6SM VCSH BKN040 FM040000 35007KT P6SM BKN045 FM040900 35006KT P6SM BKN022 FM041700 36008KT P6SM SCT070
NOTAMs
Click for the latest NOTAMs
NOTAMs are issued by the DoD/FAA and will open in a separate window not controlled by AirNav.

 

 
 

Would you like to see your business listed on this page?

 If your business provides an interesting product or service to pilots, flight crews, aircraft, or users of the Mercy Hospital St Louis Heliport, you should consider listing it here.  To start the listing process, click on the button below
 
Add a business
 

Other Pages about Mercy Hospital St Louis Heliport

Update a link
 
Copyright © AirNav, LLC. All rights reserved. Privacy Policy  Contact